Location: Sihaung
(22.8641°N, 94.0549°E)
Time: 15:47:50
(UTC+00:00)

Cosmos 1610 Rocket - Pass Details

Date: 03 March 2021
Orbit: 953 x 1002 km, 82.9° (Epoch: 12 April)

Event Time Altitude Azimuth Distance (km) Brightness Sun altitude
Rises 12:16:29 0° 181° (S) 3,619 7.6 -7.3°
Reaches altitude 10° 12:18:58 10° 180° (S) 2,679 6.9 -7.9°
Maximum altitude 12:25:06 82° 93° (E) 975 4.5 -9.3°
Drops below altitude 10° 12:31:19 10° 7° (N) 2,717 6.7 -10.8°
Sets 12:33:50 0° 6° (N) 3,673 7.4 -11.3°
